Wetterdaten: aktuell Montag, 01.03.2021 14:30
Datum Zeit Temp. Feuchte Luftdruck Nieders. Wind Richtung Richtung Sonnenschein Solar Taupunkt Windchill Windben
01.03.2021 14:30 11,4 C 67 % 1032,1 hPa 0,0 l/m 6,4 km/h (2 Bft) NW 323 5 min 425 W/m 5,5 C 11,4 C 17,7 km/h (3 Bft)
01.03.2021 14:25 11,3 C 67 % 1032,2 hPa 0,0 l/m 6,4 km/h (2 Bft) N-NW 327 5 min 436 W/m 5,4 C 11,3 C 16,1 km/h (3 Bft)
01.03.2021 14:20 11,3 C 67 % 1032,3 hPa 0,0 l/m 5,8 km/h (2 Bft) NW 306 5 min 443 W/m 5,4 C 11,3 C 16,1 km/h (3 Bft)
01.03.2021 14:15 11,3 C 66 % 1032,4 hPa 0,0 l/m 5,7 km/h (2 Bft) N-NW 346 5 min 452 W/m 5,2 C 11,3 C 14,5 km/h (3 Bft)
01.03.2021 14:10 11,2 C 67 % 1032,5 hPa 0,0 l/m 7,1 km/h (2 Bft) N 9 5 min 455 W/m 5,3 C 10,7 C 16,1 km/h (3 Bft)
01.03.2021 14:05 11,2 C 66 % 1032,5 hPa 0,0 l/m 4,6 km/h (1 Bft) N 349 5 min 464 W/m 5,1 C 11,2 C 14,5 km/h (3 Bft)
01.03.2021 14:00 11,0 C 67 % 1032,6 hPa 0,0 l/m 4,9 km/h (1 Bft) NW 321 5 min 469 W/m 5,1 C 11,0 C 14,5 km/h (3 Bft)
01.03.2021 13:55 10,8 C 67 % 1032,6 hPa 0,0 l/m 6,7 km/h (2 Bft) NW 314 5 min 475 W/m 4,9 C 10,6 C 14,5 km/h (3 Bft)
01.03.2021 13:50 10,8 C 67 % 1032,7 hPa 0,0 l/m 8,4 km/h (2 Bft) N-NW 331 5 min 482 W/m 4,9 C 9,4 C 17,7 km/h (3 Bft)
01.03.2021 13:45 10,8 C 67 % 1032,7 hPa 0,0 l/m 6,0 km/h (2 Bft) N-NW 341 5 min 483 W/m 4,9 C 10,8 C 16,1 km/h (3 Bft)
01.03.2021 13:40 10,6 C 68 % 1032,8 hPa 0,0 l/m 4,9 km/h (1 Bft) N-NW 330 5 min 487 W/m 4,9 C 10,6 C 14,5 km/h (3 Bft)
01.03.2021 13:35 10,5 C 69 % 1032,9 hPa 0,0 l/m 6,6 km/h (2 Bft) N-NW 333 5 min 494 W/m 5,1 C 10,4 C 14,5 km/h (3 Bft)
01.03.2021 13:30 10,5 C 67 % 1032,8 hPa 0,0 l/m 7,0 km/h (2 Bft) NW 306 5 min 499 W/m 4,6 C 10,1 C 14,5 km/h (3 Bft)
01.03.2021 13:25 10,4 C 68 % 1032,9 hPa 0,0 l/m 7,5 km/h (2 Bft) N-NW 336 5 min 496 W/m 4,8 C 9,6 C 14,5 km/h (3 Bft)
01.03.2021 13:20 10,4 C 69 % 1032,9 hPa 0,0 l/m 5,5 km/h (2 Bft) N-NW 330 5 min 475 W/m 5,0 C 10,4 C 14,5 km/h (3 Bft)
01.03.2021 13:15 10,3 C 69 % 1033,1 hPa 0,0 l/m 4,8 km/h (1 Bft) NW 304 5 min 457 W/m 4,9 C 10,3 C 12,9 km/h (3 Bft)
01.03.2021 13:10 10,2 C 68 % 1033,2 hPa 0,0 l/m 6,4 km/h (2 Bft) N-NW 329 5 min 438 W/m 4,6 C 10,2 C 16,1 km/h (3 Bft)
01.03.2021 13:05 10,2 C 70 % 1033,2 hPa 0,0 l/m 4,7 km/h (1 Bft) NW 325 5 min 424 W/m 5,0 C 10,2 C 12,9 km/h (3 Bft)
01.03.2021 13:00 10,2 C 69 % 1033,4 hPa 0,0 l/m 5,7 km/h (2 Bft) N-NW 329 5 min 420 W/m 4,8 C 10,2 C 14,5 km/h (3 Bft)
01.03.2021 12:55 10,2 C 69 % 1033,5 hPa 0,0 l/m 4,8 km/h (1 Bft) N-NW 337 5 min 427 W/m 4,8 C 10,2 C 12,9 km/h (3 Bft)
01.03.2021 12:50 10,1 C 70 % 1033,6 hPa 0,0 l/m 2,3 km/h (1 Bft) NW 321 5 min 443 W/m 4,9 C 10,1 C 9,7 km/h (2 Bft)
01.03.2021 12:45 9,9 C 70 % 1033,6 hPa 0,0 l/m 3,1 km/h (1 Bft) N-NW 329 5 min 468 W/m 4,7 C 9,9 C 9,7 km/h (2 Bft)
01.03.2021 12:40 9,8 C 71 % 1033,7 hPa 0,0 l/m 4,4 km/h (1 Bft) N-NW 336 5 min 490 W/m 4,8 C 9,8 C 11,3 km/h (2 Bft)
01.03.2021 12:35 9,7 C 71 % 1033,8 hPa 0,0 l/m 2,8 km/h (1 Bft) NW 325 5 min 475 W/m 4,7 C 9,7 C 9,7 km/h (2 Bft)
01.03.2021 12:30 9,6 C 71 % 1033,8 hPa 0,0 l/m 5,9 km/h (2 Bft) NW 320 5 min 443 W/m 4,6 C 9,6 C 12,9 km/h (3 Bft)
01.03.2021 12:25 9,4 C 72 % 1033,8 hPa 0,0 l/m 3,6 km/h (1 Bft) N-NW 348 5 min 427 W/m 4,6 C 9,4 C 9,7 km/h (2 Bft)
01.03.2021 12:20 9,4 C 72 % 1033,9 hPa 0,0 l/m 4,9 km/h (1 Bft) N-NW 334 5 min 448 W/m 4,6 C 9,4 C 12,9 km/h (3 Bft)
01.03.2021 12:15 9,2 C 72 % 1034,0 hPa 0,0 l/m 5,1 km/h (1 Bft) N-NW 331 5 min 494 W/m 4,4 C 9,2 C 9,7 km/h (2 Bft)
01.03.2021 12:10 9,1 C 73 % 1034,0 hPa 0,0 l/m 2,5 km/h (1 Bft) N-NW 327 5 min 526 W/m 4,5 C 9,1 C 8,0 km/h (2 Bft)
01.03.2021 12:05 8,9 C 72 % 1034,1 hPa 0,0 l/m 1,2 km/h (1 Bft) N-NW 328 5 min 524 W/m 4,1 C 8,9 C 8,0 km/h (2 Bft)
01.03.2021 12:00 8,9 C 72 % 1034,1 hPa 0,0 l/m 3,9 km/h (1 Bft) N-NW 330 5 min 524 W/m 4,1 C 8,9 C 12,9 km/h (3 Bft)
01.03.2021 11:55 8,7 C 75 % 1034,1 hPa 0,0 l/m 1,3 km/h (1 Bft) N-NW 337 5 min 522 W/m 4,5 C 8,7 C 9,7 km/h (2 Bft)
01.03.2021 11:50 8,4 C 75 % 1034,1 hPa 0,0 l/m 1,7 km/h (1 Bft) N 350 5 min 520 W/m 4,2 C 8,4 C 8,0 km/h (2 Bft)
01.03.2021 11:45 8,3 C 76 % 1034,1 hPa 0,0 l/m 3,8 km/h (1 Bft) N-NW 333 5 min 519 W/m 4,3 C 8,3 C 12,9 km/h (3 Bft)
01.03.2021 11:40 8,2 C 76 % 1034,1 hPa 0,0 l/m 3,1 km/h (1 Bft) NW 322 5 min 515 W/m 4,2 C 8,2 C 9,7 km/h (2 Bft)
01.03.2021 11:35 8,1 C 77 % 1034,1 hPa 0,0 l/m 1,2 km/h (1 Bft) NW 318 5 min 513 W/m 4,3 C 8,1 C 8,0 km/h (2 Bft)
01.03.2021 11:30 7,8 C 77 % 1034,2 hPa 0,0 l/m 1,8 km/h (1 Bft) NW 321 5 min 508 W/m 4,0 C 7,8 C 4,8 km/h (1 Bft)
01.03.2021 11:25 7,7 C 77 % 1034,2 hPa 0,0 l/m 2,8 km/h (1 Bft) NW 323 5 min 506 W/m 3,9 C 7,7 C 9,7 km/h (2 Bft)
01.03.2021 11:20 7,5 C 78 % 1034,3 hPa 0,0 l/m 2,1 km/h (1 Bft) NW 317 5 min 503 W/m 3,9 C 7,5 C 9,7 km/h (2 Bft)
01.03.2021 11:15 7,3 C 79 % 1034,3 hPa 0,0 l/m 1,6 km/h (1 Bft) N-NW 333 5 min 496 W/m 3,9 C 7,3 C 8,0 km/h (2 Bft)
01.03.2021 11:10 7,1 C 80 % 1034,4 hPa 0,0 l/m 1,3 km/h (1 Bft) N-NW 333 5 min 489 W/m 3,9 C 7,1 C 8,0 km/h (2 Bft)
01.03.2021 11:05 6,9 C 81 % 1034,5 hPa 0,0 l/m 0,6 km/h (0 Bft) NW 326 5 min 485 W/m 3,9 C 6,9 C 8,0 km/h (2 Bft)
01.03.2021 11:00 6,7 C 82 % 1034,5 hPa 0,0 l/m 0,8 km/h (0 Bft) NW 324 5 min 476 W/m 3,8 C 6,7 C 6,4 km/h (2 Bft)
01.03.2021 10:55 6,4 C 82 % 1034,5 hPa 0,0 l/m 1,1 km/h (1 Bft) NW 323 5 min 469 W/m 3,6 C 6,4 C 8,0 km/h (2 Bft)
01.03.2021 10:50 6,1 C 83 % 1034,6 hPa 0,0 l/m 0,3 km/h (0 Bft) NW 323 5 min 466 W/m 3,4 C 6,1 C 4,8 km/h (1 Bft)
01.03.2021 10:45 5,9 C 83 % 1034,6 hPa 0,0 l/m 2,5 km/h (1 Bft) NW 323 5 min 461 W/m 3,2 C 5,9 C 8,0 km/h (2 Bft)
01.03.2021 10:40 5,7 C 84 % 1034,6 hPa 0,0 l/m 1,7 km/h (1 Bft) NW 322 5 min 452 W/m 3,2 C 5,7 C 6,4 km/h (2 Bft)
01.03.2021 10:35 5,4 C 85 % 1034,6 hPa 0,0 l/m 1,9 km/h (1 Bft) NW 322 5 min 445 W/m 3,1 C 5,4 C 8,0 km/h (2 Bft)
01.03.2021 10:30 5,3 C 85 % 1034,6 hPa 0,0 l/m 3,6 km/h (1 Bft) NW 322 5 min 434 W/m 3,0 C 5,3 C 8,0 km/h (2 Bft)
01.03.2021 10:25 5,2 C 85 % 1034,6 hPa 0,0 l/m 3,9 km/h (1 Bft) NW 319 5 min 424 W/m 2,9 C 5,2 C 8,0 km/h (2 Bft)
01.03.2021 10:20 5,0 C 86 % 1034,7 hPa 0,0 l/m 2,3 km/h (1 Bft) NW 323 5 min 418 W/m 2,9 C 5,0 C 9,7 km/h (2 Bft)
01.03.2021 10:15 4,8 C 87 % 1034,8 hPa 0,0 l/m 3,4 km/h (1 Bft) NW 325 5 min 408 W/m 2,8 C 4,8 C 8,0 km/h (2 Bft)
01.03.2021 10:10 4,6 C 87 % 1034,7 hPa 0,0 l/m 3,8 km/h (1 Bft) NW 325 5 min 399 W/m 2,6 C 4,6 C 8,0 km/h (2 Bft)
01.03.2021 10:05 4,6 C 87 % 1034,7 hPa 0,0 l/m 4,5 km/h (1 Bft) N-NW 329 5 min 390 W/m 2,6 C 4,6 C 9,7 km/h (2 Bft)
01.03.2021 10:00 4,3 C 89 % 1034,7 hPa 0,0 l/m 2,4 km/h (1 Bft) N-NW 329 5 min 380 W/m 2,7 C 4,3 C 6,4 km/h (2 Bft)
01.03.2021 09:55 4,2 C 89 % 1034,7 hPa 0,0 l/m 3,9 km/h (1 Bft) N-NW 331 5 min 371 W/m 2,6 C 4,2 C 14,5 km/h (3 Bft)
01.03.2021 09:50 3,9 C 89 % 1034,7 hPa 0,0 l/m 5,9 km/h (2 Bft) NW 326 5 min 360 W/m 2,3 C 3,9 C 16,1 km/h (3 Bft)
01.03.2021 09:45 3,8 C 90 % 1034,7 hPa 0,0 l/m 3,3 km/h (1 Bft) NW 316 5 min 350 W/m 2,3 C 3,8 C 12,9 km/h (3 Bft)
01.03.2021 09:40 3,7 C 91 % 1034,8 hPa 0,0 l/m 4,3 km/h (1 Bft) NW 321 5 min 338 W/m 2,4 C 3,7 C 8,0 km/h (2 Bft)
01.03.2021 09:35 3,4 C 92 % 1034,8 hPa 0,0 l/m 2,7 km/h (1 Bft) NW 325 5 min 325 W/m 2,2 C 3,4 C 11,3 km/h (2 Bft)
01.03.2021 09:30 3,3 C 93 % 1034,8 hPa 0,0 l/m 1,9 km/h (1 Bft) NW 314 5 min 315 W/m 2,3 C 3,3 C 6,4 km/h (2 Bft)
01.03.2021 09:25 3,1 C 93 % 1034,8 hPa 0,0 l/m 3,5 km/h (1 Bft) NW 311 5 min 313 W/m 2,1 C 3,1 C 8,0 km/h (2 Bft)
01.03.2021 09:20 3,1 C 94 % 1034,8 hPa 0,0 l/m 4,1 km/h (1 Bft) NW 318 5 min 285 W/m 2,2 C 3,1 C 11,3 km/h (2 Bft)
01.03.2021 09:15 3,0 C 94 % 1034,8 hPa 0,0 l/m 0,5 km/h (0 Bft) N-NW 341 5 min 281 W/m 2,1 C 3,0 C 4,8 km/h (1 Bft)
01.03.2021 09:10 2,8 C 95 % 1034,8 hPa 0,0 l/m 0,0 km/h (0 Bft) N-NW 343 5 min 278 W/m 2,1 C 2,8 C 0,0 km/h (0 Bft)
01.03.2021 09:05 2,6 C 95 % 1034,7 hPa 0,0 l/m 0,0 km/h (0 Bft) N-NW 342 5 min 255 W/m 1,9 C 2,6 C 0,0 km/h (0 Bft)
01.03.2021 09:00 2,4 C 95 % 1034,6 hPa 0,0 l/m 0,0 km/h (0 Bft) N-NW 342 5 min 239 W/m 1,7 C 2,4 C 0,0 km/h (0 Bft)
01.03.2021 08:55 2,2 C 95 % 1034,5 hPa 0,0 l/m 0,0 km/h (0 Bft) N-NW 343 5 min 221 W/m 1,5 C 2,2 C 0,0 km/h (0 Bft)
01.03.2021 08:50 2,1 C 95 % 1034,5 hPa 0,0 l/m 0,0 km/h (0 Bft) N-NW 342 5 min 206 W/m 1,4 C 2,1 C 0,0 km/h (0 Bft)
01.03.2021 08:45 1,8 C 95 % 1034,5 hPa 0,0 l/m 0,0 km/h (0 Bft) N-NW 342 5 min 190 W/m 1,1 C 1,8 C 0,0 km/h (0 Bft)
01.03.2021 08:40 1,6 C 95 % 1034,5 hPa 0,0 l/m 0,0 km/h (0 Bft) N-NW 342 5 min 176 W/m 0,9 C 1,6 C 0,0 km/h (0 Bft)
01.03.2021 08:35 1,4 C 95 % 1034,5 hPa 0,0 l/m 0,0 km/h (0 Bft) N-NW 342 5 min 162 W/m 0,7 C 1,4 C 0,0 km/h (0 Bft)
01.03.2021 08:30 1,2 C 95 % 1034,4 hPa 0,0 l/m 0,0 km/h (0 Bft) N-NW 342 0 min 148 W/m 0,5 C 1,2 C 0,0 km/h (0 Bft)
01.03.2021 08:25 0,8 C 95 % 1034,5 hPa 0,0 l/m 0,0 km/h (0 Bft) N-NW 342 0 min 132 W/m 0,1 C 0,8 C 0,0 km/h (0 Bft)
01.03.2021 08:20 0,5 C 96 % 1034,5 hPa 0,0 l/m 0,0 km/h (0 Bft) N-NW 342 0 min 121 W/m -0,1 C 0,5 C 0,0 km/h (0 Bft)
01.03.2021 08:15 0,2 C 96 % 1034,4 hPa 0,0 l/m 0,0 km/h (0 Bft) N-NW 342 0 min 105 W/m -0,4 C 0,2 C 0,0 km/h (0 Bft)
01.03.2021 08:10 -0,2 C 96 % 1034,5 hPa 0,0 l/m 0,0 km/h (0 Bft) N-NW 342 0 min 98 W/m -0,8 C -0,2 C 0,0 km/h (0 Bft)
01.03.2021 08:05 -0,6 C 95 % 1034,4 hPa 0,0 l/m 0,0 km/h (0 Bft) N-NW 343 0 min 90 W/m -1,3 C -0,6 C 0,0 km/h (0 Bft)
01.03.2021 08:00 -0,9 C 95 % 1034,3 hPa 0,0 l/m 0,0 km/h (0 Bft) N-NW 342 0 min 84 W/m -1,6 C -0,9 C 0,0 km/h (0 Bft)
01.03.2021 07:55 -1,3 C 95 % 1034,4 hPa 0,0 l/m 0,0 km/h (0 Bft) N-NW 342 0 min 74 W/m -2,0 C -1,3 C 0,0 km/h (0 Bft)
01.03.2021 07:50 -1,6 C 95 % 1034,3 hPa 0,0 l/m 0,0 km/h (0 Bft) N-NW 342 0 min 53 W/m -2,3 C -1,6 C 0,0 km/h (0 Bft)
01.03.2021 07:45 -1,9 C 95 % 1034,3 hPa 0,0 l/m 0,0 km/h (0 Bft) N-NW 343 0 min 39 W/m -2,6 C -1,9 C 0,0 km/h (0 Bft)
01.03.2021 07:40 -2,1 C 94 % 1034,3 hPa 0,0 l/m 0,0 km/h (0 Bft) N-NW 342 0 min 30 W/m -2,9 C -2,1 C 0,0 km/h (0 Bft)
01.03.2021 07:35 -2,1 C 94 % 1034,3 hPa 0,0 l/m 0,0 km/h (0 Bft) N-NW 343 0 min 18 W/m -2,9 C -2,1 C 0,0 km/h (0 Bft)
01.03.2021 07:30 -2,2 C 94 % 1034,3 hPa 0,0 l/m 0,0 km/h (0 Bft) N-NW 342 0 min 14 W/m -3,0 C -2,2 C 0,0 km/h (0 Bft)
01.03.2021 07:25 -2,2 C 94 % 1034,3 hPa 0,0 l/m 0,0 km/h (0 Bft) N-NW 342 0 min 11 W/m -3,0 C -2,2 C 0,0 km/h (0 Bft)
01.03.2021 07:20 -2,2 C 94 % 1034,3 hPa 0,0 l/m 0,0 km/h (0 Bft) N-NW 343 0 min 9 W/m -3,0 C -2,2 C 0,0 km/h (0 Bft)
01.03.2021 07:15 -2,2 C 94 % 1034,2 hPa 0,0 l/m 0,0 km/h (0 Bft) N-NW 343 0 min 5 W/m -3,0 C -2,2 C 0,0 km/h (0 Bft)
01.03.2021 07:10 -2,2 C 94 % 1034,2 hPa 0,0 l/m 0,0 km/h (0 Bft) N-NW 343 0 min 0 W/m -3,0 C -2,2 C 0,0 km/h (0 Bft)
01.03.2021 07:05 -2,3 C 94 % 1034,1 hPa 0,0 l/m 0,0 km/h (0 Bft) N-NW 343 0 min 0 W/m -3,1 C -2,3 C 0,0 km/h (0 Bft)
01.03.2021 07:00 -2,2 C 94 % 1034,2 hPa 0,0 l/m 0,0 km/h (0 Bft) N-NW 342 0 min 0 W/m -3,0 C -2,2 C 0,0 km/h (0 Bft)
01.03.2021 06:55 -2,2 C 94 % 1034,1 hPa 0,0 l/m 0,0 km/h (0 Bft) N-NW 342 0 min 0 W/m -3,0 C -2,2 C 0,0 km/h (0 Bft)
01.03.2021 06:50 -2,2 C 94 % 1034,1 hPa 0,0 l/m 0,0 km/h (0 Bft) N-NW 343 0 min 0 W/m -3,0 C -2,2 C 0,0 km/h (0 Bft)
01.03.2021 06:45 -2,2 C 94 % 1034,0 hPa 0,0 l/m 0,0 km/h (0 Bft) N-NW 343 0 min 0 W/m -3,0 C -2,2 C 0,0 km/h (0 Bft)
01.03.2021 06:40 -2,2 C 94 % 1034,1 hPa 0,0 l/m 0,0 km/h (0 Bft) N-NW 343 0 min 0 W/m -3,0 C -2,2 C 0,0 km/h (0 Bft)
01.03.2021 06:35 -2,2 C 95 % 1034,1 hPa 0,0 l/m 0,0 km/h (0 Bft) N-NW 342 0 min 0 W/m -2,9 C -2,2 C 0,0 km/h (0 Bft)
01.03.2021 06:30 -2,4 C 94 % 1034,1 hPa 0,0 l/m 0,0 km/h (0 Bft) N-NW 342 0 min 0 W/m -3,2 C -2,4 C 0,0 km/h (0 Bft)
01.03.2021 06:25 -2,5 C 94 % 1034,1 hPa 0,0 l/m 0,0 km/h (0 Bft) N-NW 343 0 min 0 W/m -3,3 C -2,5 C 0,0 km/h (0 Bft)
01.03.2021 06:20 -2,6 C 94 % 1034,1 hPa 0,0 l/m 0,0 km/h (0 Bft) N-NW 343 0 min 0 W/m -3,4 C -2,6 C 0,0 km/h (0 Bft)
01.03.2021 06:15 -2,5 C 94 % 1034,1 hPa 0,0 l/m 0,0 km/h (0 Bft) N-NW 342 0 min 0 W/m -3,3 C -2,5 C 0,0 km/h (0 Bft)
01.03.2021 06:10 -2,6 C 94 % 1034,1 hPa 0,0 l/m 0,0 km/h (0 Bft) N-NW 342 0 min 0 W/m -3,4 C -2,6 C 0,0 km/h (0 Bft)
01.03.2021 06:05 -2,6 C 94 % 1034,0 hPa 0,0 l/m 0,0 km/h (0 Bft) N-NW 343 0 min 0 W/m -3,4 C -2,6 C 0,0 km/h (0 Bft)
01.03.2021 05:55 -2,6 C 94 % 1034,0 hPa 0,0 l/m 0,0 km/h (0 Bft) N 0 0 min 0 W/m -3,4 C -2,6 C 0,0 km/h (0 Bft)
01.03.2021 05:50 -2,6 C 94 % 1033,9 hPa 0,0 l/m 0,0 km/h (0 Bft) N 0 0 min 0 W/m -3,4 C -2,6 C 0,0 km/h (0 Bft)
01.03.2021 05:45 -2,6 C 94 % 1033,9 hPa 0,0 l/m 0,0 km/h (0 Bft) N 0 0 min 0 W/m -3,4 C -2,6 C 0,0 km/h (0 Bft)
01.03.2021 05:40 -2,5 C 94 % 1033,9 hPa 0,0 l/m 0,0 km/h (0 Bft) N 0 0 min 0 W/m -3,3 C -2,5 C 0,0 km/h (0 Bft)
01.03.2021 05:35 -2,4 C 94 % 1033,9 hPa 0,0 l/m 0,0 km/h (0 Bft) N 0 0 min 0 W/m -3,2 C -2,4 C 0,0 km/h (0 Bft)
01.03.2021 05:30 -2,4 C 94 % 1033,9 hPa 0,0 l/m 0,0 km/h (0 Bft) N 0 0 min 0 W/m -3,2 C -2,4 C 0,0 km/h (0 Bft)
01.03.2021 05:25 -2,4 C 94 % 1033,9 hPa 0,0 l/m 0,0 km/h (0 Bft) N 0 0 min 0 W/m -3,2 C -2,4 C 0,0 km/h (0 Bft)
01.03.2021 05:20 -2,4 C 94 % 1033,9 hPa 0,0 l/m 0,0 km/h (0 Bft) N 0 0 min 0 W/m -3,2 C -2,4 C 0,0 km/h (0 Bft)
01.03.2021 05:15 -2,4 C 94 % 1033,8 hPa 0,0 l/m 0,0 km/h (0 Bft) N 0 0 min 0 W/m -3,2 C -2,4 C 0,0 km/h (0 Bft)
01.03.2021 05:10 -2,4 C 94 % 1033,7 hPa 0,0 l/m 0,0 km/h (0 Bft) N 0 0 min 0 W/m -3,2 C -2,4 C 0,0 km/h (0 Bft)
01.03.2021 05:05 -2,4 C 94 % 1033,8 hPa 0,0 l/m 0,0 km/h (0 Bft) N 0 0 min 0 W/m -3,2 C -2,4 C 0,0 km/h (0 Bft)
01.03.2021 05:00 -2,3 C 94 % 1033,8 hPa 0,0 l/m 0,0 km/h (0 Bft) N 0 0 min 0 W/m -3,1 C -2,3 C 0,0 km/h (0 Bft)
01.03.2021 04:55 -2,3 C 94 % 1033,7 hPa 0,0 l/m 0,0 km/h (0 Bft) N 0 0 min 0 W/m -3,1 C -2,3 C 0,0 km/h (0 Bft)
01.03.2021 04:50 -2,3 C 94 % 1033,6 hPa 0,0 l/m 0,0 km/h (0 Bft) N 0 0 min 0 W/m -3,1 C -2,3 C 0,0 km/h (0 Bft)
01.03.2021 04:45 -2,3 C 94 % 1033,6 hPa 0,0 l/m 0,0 km/h (0 Bft) N 0 0 min 0 W/m -3,1 C -2,3 C 0,0 km/h (0 Bft)
01.03.2021 04:40 -2,3 C 94 % 1033,6 hPa 0,0 l/m 0,0 km/h (0 Bft) N 0 0 min 0 W/m -3,1 C -2,3 C 0,0 km/h (0 Bft)
01.03.2021 04:35 -2,3 C 94 % 1033,6 hPa 0,0 l/m 0,0 km/h (0 Bft) N 0 0 min 0 W/m -3,1 C -2,3 C 0,0 km/h (0 Bft)
01.03.2021 04:30 -2,4 C 94 % 1033,6 hPa 0,0 l/m 0,0 km/h (0 Bft) N 0 0 min 0 W/m -3,2 C -2,4 C 0,0 km/h (0 Bft)
01.03.2021 04:25 -2,4 C 94 % 1033,7 hPa 0,0 l/m 0,0 km/h (0 Bft) N 0 0 min 0 W/m -3,2 C -2,4 C 0,0 km/h (0 Bft)
01.03.2021 04:20 -2,4 C 93 % 1033,6 hPa 0,0 l/m 0,0 km/h (0 Bft) N 0 0 min 0 W/m -3,4 C -2,4 C 0,0 km/h (0 Bft)
01.03.2021 04:15 -2,3 C 94 % 1033,6 hPa 0,0 l/m 0,0 km/h (0 Bft) N 0 0 min 0 W/m -3,1 C -2,3 C 0,0 km/h (0 Bft)
01.03.2021 04:10 -2,3 C 94 % 1033,7 hPa 0,0 l/m 0,0 km/h (0 Bft) N 0 0 min 0 W/m -3,1 C -2,3 C 0,0 km/h (0 Bft)
01.03.2021 04:05 -2,2 C 94 % 1033,7 hPa 0,0 l/m 0,0 km/h (0 Bft) N 0 0 min 0 W/m -3,0 C -2,2 C 0,0 km/h (0 Bft)
01.03.2021 04:00 -2,2 C 94 % 1033,7 hPa 0,0 l/m 0,0 km/h (0 Bft) N 0 0 min 0 W/m -3,0 C -2,2 C 0,0 km/h (0 Bft)
01.03.2021 03:55 -2,2 C 94 % 1033,7 hPa 0,0 l/m 0,0 km/h (0 Bft) N 0 0 min 0 W/m -3,0 C -2,2 C 0,0 km/h (0 Bft)
01.03.2021 03:50 -2,2 C 93 % 1033,7 hPa 0,0 l/m 0,0 km/h (0 Bft) N 0 0 min 0 W/m -3,2 C -2,2 C 0,0 km/h (0 Bft)
01.03.2021 03:45 -2,1 C 93 % 1033,6 hPa 0,0 l/m 0,0 km/h (0 Bft) N 0 0 min 0 W/m -3,1 C -2,1 C 0,0 km/h (0 Bft)
01.03.2021 03:40 -2,1 C 93 % 1033,6 hPa 0,0 l/m 0,0 km/h (0 Bft) N 0 0 min 0 W/m -3,1 C -2,1 C 0,0 km/h (0 Bft)
01.03.2021 03:35 -1,9 C 93 % 1033,7 hPa 0,0 l/m 0,0 km/h (0 Bft) N 0 0 min 0 W/m -2,9 C -1,9 C 0,0 km/h (0 Bft)
01.03.2021 03:30 -1,8 C 93 % 1033,7 hPa 0,0 l/m 0,0 km/h (0 Bft) N 0 0 min 0 W/m -2,8 C -1,8 C 0,0 km/h (0 Bft)
01.03.2021 03:25 -1,8 C 93 % 1033,6 hPa 0,0 l/m 0,0 km/h (0 Bft) N 0 0 min 0 W/m -2,8 C -1,8 C 0,0 km/h (0 Bft)
01.03.2021 03:20 -1,7 C 93 % 1033,7 hPa 0,0 l/m 0,0 km/h (0 Bft) N 0 0 min 0 W/m -2,7 C -1,7 C 0,0 km/h (0 Bft)
01.03.2021 03:15 -1,6 C 93 % 1033,7 hPa 0,0 l/m 0,0 km/h (0 Bft) N 0 0 min 0 W/m -2,6 C -1,6 C 0,0 km/h (0 Bft)
01.03.2021 03:10 -1,5 C 94 % 1033,7 hPa 0,0 l/m 0,0 km/h (0 Bft) N 0 0 min 0 W/m -2,3 C -1,5 C 0,0 km/h (0 Bft)
01.03.2021 03:05 -1,4 C 94 % 1033,7 hPa 0,0 l/m 0,0 km/h (0 Bft) N 0 0 min 0 W/m -2,2 C -1,4 C 0,0 km/h (0 Bft)
01.03.2021 03:00 -1,4 C 94 % 1033,7 hPa 0,0 l/m 0,0 km/h (0 Bft) N 0 0 min 0 W/m -2,2 C -1,4 C 0,0 km/h (0 Bft)
01.03.2021 02:55 -1,4 C 94 % 1033,8 hPa 0,0 l/m 0,0 km/h (0 Bft) N 0 0 min 0 W/m -2,2 C -1,4 C 0,0 km/h (0 Bft)
01.03.2021 02:50 -1,5 C 93 % 1033,8 hPa 0,0 l/m 0,0 km/h (0 Bft) N 0 0 min 0 W/m -2,5 C -1,5 C 0,0 km/h (0 Bft)
01.03.2021 02:45 -1,5 C 93 % 1033,8 hPa 0,0 l/m 0,0 km/h (0 Bft) N 0 0 min 0 W/m -2,5 C -1,5 C 0,0 km/h (0 Bft)
01.03.2021 02:40 -1,4 C 93 % 1033,9 hPa 0,0 l/m 0,0 km/h (0 Bft) N 0 0 min 0 W/m -2,4 C -1,4 C 0,0 km/h (0 Bft)
01.03.2021 02:35 -1,3 C 94 % 1033,9 hPa 0,0 l/m 0,0 km/h (0 Bft) N 0 0 min 0 W/m -2,1 C -1,3 C 0,0 km/h (0 Bft)
01.03.2021 02:30 -1,3 C 93 % 1033,9 hPa 0,0 l/m 0,0 km/h (0 Bft) N 0 0 min 0 W/m -2,3 C -1,3 C 0,0 km/h (0 Bft)
01.03.2021 02:25 -1,3 C 94 % 1034,0 hPa 0,0 l/m 0,0 km/h (0 Bft) N 0 0 min 0 W/m -2,1 C -1,3 C 0,0 km/h (0 Bft)
01.03.2021 02:20 -1,3 C 93 % 1034,0 hPa 0,0 l/m 0,0 km/h (0 Bft) N 0 0 min 0 W/m -2,3 C -1,3 C 0,0 km/h (0 Bft)
01.03.2021 02:15 -1,3 C 93 % 1034,0 hPa 0,0 l/m 0,0 km/h (0 Bft) N 0 0 min 0 W/m -2,3 C -1,3 C 0,0 km/h (0 Bft)
01.03.2021 02:10 -1,3 C 93 % 1034,0 hPa 0,0 l/m 0,0 km/h (0 Bft) N 0 0 min 0 W/m -2,3 C -1,3 C 0,0 km/h (0 Bft)
01.03.2021 02:05 -1,3 C 93 % 1034,0 hPa 0,0 l/m 0,0 km/h (0 Bft) N 0 0 min 0 W/m -2,3 C -1,3 C 0,0 km/h (0 Bft)
01.03.2021 02:00 -1,3 C 93 % 1034,0 hPa 0,0 l/m 0,0 km/h (0 Bft) N 0 0 min 0 W/m -2,3 C -1,3 C 0,0 km/h (0 Bft)
01.03.2021 01:55 -1,4 C 93 % 1034,1 hPa 0,0 l/m 0,0 km/h (0 Bft) N 0 0 min 0 W/m -2,4 C -1,4 C 0,0 km/h (0 Bft)
01.03.2021 01:50 -1,4 C 93 % 1034,0 hPa 0,0 l/m 0,0 km/h (0 Bft) N 0 0 min 0 W/m -2,4 C -1,4 C 0,0 km/h (0 Bft)
01.03.2021 01:45 -1,3 C 93 % 1034,1 hPa 0,0 l/m 0,0 km/h (0 Bft) N 0 0 min 0 W/m -2,3 C -1,3 C 0,0 km/h (0 Bft)
01.03.2021 01:40 -1,3 C 93 % 1034,0 hPa 0,0 l/m 0,0 km/h (0 Bft) N 0 0 min 0 W/m -2,3 C -1,3 C 0,0 km/h (0 Bft)
01.03.2021 01:35 -1,2 C 93 % 1034,0 hPa 0,0 l/m 0,0 km/h (0 Bft) N 0 0 min 0 W/m -2,2 C -1,2 C 0,0 km/h (0 Bft)
01.03.2021 01:30 -1,2 C 92 % 1034,1 hPa 0,0 l/m 0,0 km/h (0 Bft) N 0 0 min 0 W/m -2,3 C -1,2 C 0,0 km/h (0 Bft)
01.03.2021 01:25 -1,1 C 92 % 1034,0 hPa 0,0 l/m 0,0 km/h (0 Bft) N 0 0 min 0 W/m -2,2 C -1,1 C 0,0 km/h (0 Bft)
01.03.2021 01:20 -1,0 C 92 % 1034,0 hPa 0,0 l/m 0,0 km/h (0 Bft) N 0 0 min 0 W/m -2,1 C -1,0 C 0,0 km/h (0 Bft)
01.03.2021 01:15 -0,9 C 92 % 1033,9 hPa 0,0 l/m 0,0 km/h (0 Bft) N 0 0 min 0 W/m -2,0 C -0,9 C 0,0 km/h (0 Bft)
01.03.2021 01:10 -0,8 C 92 % 1033,9 hPa 0,0 l/m 0,0 km/h (0 Bft) N 0 0 min 0 W/m -1,9 C -0,8 C 0,0 km/h (0 Bft)
01.03.2021 01:05 -0,7 C 93 % 1033,9 hPa 0,0 l/m 0,0 km/h (0 Bft) N 0 0 min 0 W/m -1,7 C -0,7 C 0,0 km/h (0 Bft)
01.03.2021 01:00 -0,6 C 93 % 1033,9 hPa 0,0 l/m 0,0 km/h (0 Bft) N 0 0 min 0 W/m -1,6 C -0,6 C 0,0 km/h (0 Bft)
01.03.2021 00:55 -0,6 C 93 % 1033,9 hPa 0,0 l/m 0,0 km/h (0 Bft) N 0 0 min 0 W/m -1,6 C -0,6 C 0,0 km/h (0 Bft)
01.03.2021 00:50 -0,6 C 92 % 1033,9 hPa 0,0 l/m 0,0 km/h (0 Bft) N 0 0 min 0 W/m -1,7 C -0,6 C 0,0 km/h (0 Bft)
01.03.2021 00:45 -0,6 C 92 % 1033,9 hPa 0,0 l/m 0,0 km/h (0 Bft) N 0 0 min 0 W/m -1,7 C -0,6 C 0,0 km/h (0 Bft)
01.03.2021 00:40 -0,5 C 92 % 1033,9 hPa 0,0 l/m 0,0 km/h (0 Bft) N 0 0 min 0 W/m -1,6 C -0,5 C 0,0 km/h (0 Bft)
01.03.2021 00:35 -0,5 C 92 % 1034,0 hPa 0,0 l/m 0,0 km/h (0 Bft) N 0 0 min 0 W/m -1,6 C -0,5 C 0,0 km/h (0 Bft)
01.03.2021 00:30 -0,4 C 92 % 1033,9 hPa 0,0 l/m 0,0 km/h (0 Bft) N 0 0 min 0 W/m -1,5 C -0,4 C 0,0 km/h (0 Bft)
01.03.2021 00:25 -0,3 C 92 % 1033,9 hPa 0,0 l/m 0,0 km/h (0 Bft) N 0 0 min 0 W/m -1,4 C -0,3 C 0,0 km/h (0 Bft)
01.03.2021 00:20 -0,3 C 92 % 1034,0 hPa 0,0 l/m 0,0 km/h (0 Bft) N 0 0 min 0 W/m -1,4 C -0,3 C 0,0 km/h (0 Bft)
01.03.2021 00:15 -0,2 C 92 % 1034,0 hPa 0,0 l/m 0,0 km/h (0 Bft) N 0 0 min 0 W/m -1,3 C -0,2 C 0,0 km/h (0 Bft)
01.03.2021 00:10 -0,1 C 92 % 1034,0 hPa 0,0 l/m 0,0 km/h (0 Bft) N 0 0 min 0 W/m -1,2 C -0,1 C 0,0 km/h (0 Bft)
01.03.2021 00:05 -0,1 C 92 % 1033,9 hPa 0,0 l/m 0,0 km/h (0 Bft) N 0 0 min 0 W/m -1,2 C -0,1 C 0,0 km/h (0 Bft)
01.03.2021 00:00 -0,1 C 92 % 1034,0 hPa 0,0 l/m 0,0 km/h (0 Bft) N 0 0 min 0 W/m -1,2 C -0,1 C 0,0 km/h (0 Bft)
28.02.2021 23:55 -0,1 C 92 % 1034,0 hPa 0,0 l/m 0,0 km/h (0 Bft) N 0 0 min 0 W/m -1,2 C -0,1 C 0,0 km/h (0 Bft)
28.02.2021 23:50 -0,1 C 92 % 1033,9 hPa 0,0 l/m 0,0 km/h (0 Bft) N 0 0 min 0 W/m -1,2 C -0,1 C 0,0 km/h (0 Bft)
28.02.2021 23:45 0,1 C 92 % 1033,9 hPa 0,0 l/m 0,0 km/h (0 Bft) N 0 0 min 0 W/m -1,0 C 0,1 C 0,0 km/h (0 Bft)
28.02.2021 23:40 0,1 C 91 % 1033,9 hPa 0,0 l/m 0,0 km/h (0 Bft) N 0 0 min 0 W/m -1,2 C 0,1 C 0,0 km/h (0 Bft)
28.02.2021 23:35 0,2 C 91 % 1033,9 hPa 0,0 l/m 0,0 km/h (0 Bft) N 0 0 min 0 W/m -1,1 C 0,2 C 0,0 km/h (0 Bft)
28.02.2021 23:30 0,2 C 91 % 1033,8 hPa 0,0 l/m 0,0 km/h (0 Bft) N 0 0 min 0 W/m -1,1 C 0,2 C 0,0 km/h (0 Bft)
28.02.2021 23:25 0,3 C 91 % 1033,9 hPa 0,0 l/m 0,0 km/h (0 Bft) N 0 0 min 0 W/m -1,0 C 0,3 C 0,0 km/h (0 Bft)
28.02.2021 23:20 0,4 C 91 % 1033,9 hPa 0,0 l/m 0,0 km/h (0 Bft) N 0 0 min 0 W/m -0,9 C 0,4 C 0,0 km/h (0 Bft)
28.02.2021 23:15 0,4 C 91 % 1033,9 hPa 0,0 l/m 0,0 km/h (0 Bft) N 0 0 min 0 W/m -0,9 C 0,4 C 0,0 km/h (0 Bft)
28.02.2021 23:10 0,5 C 91 % 1033,9 hPa 0,0 l/m 0,0 km/h (0 Bft) N 0 0 min 0 W/m -0,8 C 0,5 C 0,0 km/h (0 Bft)
28.02.2021 23:05 0,6 C 91 % 1034,0 hPa 0,0 l/m 0,0 km/h (0 Bft) N 0 0 min 0 W/m -0,7 C 0,6 C 0,0 km/h (0 Bft)
28.02.2021 23:00 0,6 C 90 % 1033,9 hPa 0,0 l/m 0,0 km/h (0 Bft) N-NW 343 0 min 0 W/m -0,8 C 0,6 C 0,0 km/h (0 Bft)
28.02.2021 22:55 0,7 C 90 % 1033,9 hPa 0,0 l/m 0,0 km/h (0 Bft) N-NW 343 0 min 0 W/m -0,7 C 0,7 C 0,0 km/h (0 Bft)
28.02.2021 22:50 0,8 C 90 % 1033,9 hPa 0,0 l/m 0,0 km/h (0 Bft) N-NW 342 0 min 0 W/m -0,6 C 0,8 C 0,0 km/h (0 Bft)
28.02.2021 22:45 0,9 C 90 % 1034,0 hPa 0,0 l/m 0,0 km/h (0 Bft) N-NW 342 0 min 0 W/m -0,6 C 0,9 C 0,0 km/h (0 Bft)
28.02.2021 22:40 1,1 C 90 % 1034,1 hPa 0,0 l/m 0,0 km/h (0 Bft) N-NW 342 0 min 0 W/m -0,4 C 1,1 C 0,0 km/h (0 Bft)
28.02.2021 22:35 1,1 C 90 % 1034,0 hPa 0,0 l/m 0,0 km/h (0 Bft) N-NW 342 0 min 0 W/m -0,4 C 1,1 C 0,0 km/h (0 Bft)
28.02.2021 22:30 1,2 C 90 % 1034,0 hPa 0,0 l/m 0,0 km/h (0 Bft) N-NW 342 0 min 0 W/m -0,3 C 1,2 C 0,0 km/h (0 Bft)
28.02.2021 22:25 1,3 C 89 % 1034,1 hPa 0,0 l/m 0,0 km/h (0 Bft) N-NW 343 0 min 0 W/m -0,3 C 1,3 C 0,0 km/h (0 Bft)
28.02.2021 22:20 1,4 C 90 % 1034,0 hPa 0,0 l/m 0,0 km/h (0 Bft) N-NW 343 0 min 0 W/m -0,1 C 1,4 C 0,0 km/h (0 Bft)
28.02.2021 22:15 1,5 C 90 % 1034,0 hPa 0,0 l/m 0,0 km/h (0 Bft) N-NW 343 0 min 0 W/m 0,0 C 1,5 C 0,0 km/h (0 Bft)
28.02.2021 22:10 1,3 C 90 % 1034,0 hPa 0,0 l/m 0,0 km/h (0 Bft) N-NW 342 0 min 0 W/m -0,2 C 1,3 C 0,0 km/h (0 Bft)
28.02.2021 22:05 1,3 C 88 % 1034,0 hPa 0,0 l/m 0,0 km/h (0 Bft) N-NW 343 0 min 0 W/m -0,5 C 1,3 C 0,0 km/h (0 Bft)
28.02.2021 22:00 1,6 C 87 % 1034,0 hPa 0,0 l/m 0,0 km/h (0 Bft) N-NW 342 0 min 0 W/m -0,3 C 1,6 C 0,0 km/h (0 Bft)
28.02.2021 21:55 1,8 C 88 % 1033,9 hPa 0,0 l/m 0,0 km/h (0 Bft) N-NW 342 0 min 0 W/m 0,0 C 1,8 C 0,0 km/h (0 Bft)
28.02.2021 21:50 1,9 C 88 % 1033,9 hPa 0,0 l/m 0,0 km/h (0 Bft) N-NW 342 0 min 0 W/m 0,1 C 1,9 C 0,0 km/h (0 Bft)
28.02.2021 21:45 1,9 C 88 % 1033,8 hPa 0,0 l/m 0,0 km/h (0 Bft) N-NW 342 0 min 0 W/m 0,1 C 1,9 C 0,0 km/h (0 Bft)
28.02.2021 21:40 2,0 C 87 % 1033,8 hPa 0,0 l/m 0,0 km/h (0 Bft) N-NW 342 0 min 0 W/m 0,1 C 2,0 C 0,0 km/h (0 Bft)
28.02.2021 21:35 2,1 C 87 % 1033,8 hPa 0,0 l/m 0,0 km/h (0 Bft) N-NW 342 0 min 0 W/m 0,2 C 2,1 C 0,0 km/h (0 Bft)
28.02.2021 21:30 2,2 C 87 % 1033,9 hPa 0,0 l/m 0,0 km/h (0 Bft) N-NW 342 0 min 0 W/m 0,3 C 2,2 C 0,0 km/h (0 Bft)
28.02.2021 21:25 2,3 C 86 % 1033,8 hPa 0,0 l/m 0,0 km/h (0 Bft) N-NW 342 0 min 0 W/m 0,2 C 2,3 C 0,0 km/h (0 Bft)
28.02.2021 21:20 2,5 C 86 % 1033,9 hPa 0,0 l/m 0,0 km/h (0 Bft) N-NW 343 0 min 0 W/m 0,4 C 2,5 C 0,0 km/h (0 Bft)
28.02.2021 21:15 2,7 C 85 % 1033,9 hPa 0,0 l/m 0,0 km/h (0 Bft) N-NW 342 0 min 0 W/m 0,4 C 2,7 C 0,0 km/h (0 Bft)
28.02.2021 21:10 3,0 C 84 % 1033,8 hPa 0,0 l/m 0,0 km/h (0 Bft) N-NW 342 0 min 0 W/m 0,6 C 3,0 C 0,0 km/h (0 Bft)
28.02.2021 21:05 3,3 C 84 % 1033,9 hPa 0,0 l/m 0,0 km/h (0 Bft) N-NW 343 0 min 0 W/m 0,9 C 3,3 C 0,0 km/h (0 Bft)
28.02.2021 21:00 3,6 C 84 % 1033,9 hPa 0,0 l/m 0,0 km/h (0 Bft) N-NW 343 0 min 0 W/m 1,2 C 3,6 C 0,0 km/h (0 Bft)
28.02.2021 20:55 3,8 C 84 % 1033,8 hPa 0,0 l/m 0,0 km/h (0 Bft) N-NW 342 0 min 0 W/m 1,4 C 3,8 C 0,0 km/h (0 Bft)
28.02.2021 20:50 3,9 C 84 % 1033,8 hPa 0,0 l/m 0,0 km/h (0 Bft) N-NW 342 0 min 0 W/m 1,4 C 3,9 C 0,0 km/h (0 Bft)
28.02.2021 20:45 4,1 C 83 % 1033,8 hPa 0,0 l/m 0,0 km/h (0 Bft) N-NW 343 0 min 0 W/m 1,5 C 4,1 C 0,0 km/h (0 Bft)
28.02.2021 20:40 4,3 C 81 % 1033,8 hPa 0,0 l/m 0,0 km/h (0 Bft) N-NW 342 0 min 0 W/m 1,3 C 4,3 C 0,0 km/h (0 Bft)
28.02.2021 20:35 4,7 C 81 % 1033,7 hPa 0,0 l/m 0,0 km/h (0 Bft) N-NW 343 0 min 0 W/m 1,7 C 4,7 C 0,0 km/h (0 Bft)
28.02.2021 20:30 5,0 C 82 % 1033,8 hPa 0,0 l/m 0,0 km/h (0 Bft) N-NW 343 0 min 0 W/m 2,2 C 5,0 C 0,0 km/h (0 Bft)
28.02.2021 20:25 5,3 C 80 % 1033,7 hPa 0,0 l/m 0,0 km/h (0 Bft) N-NW 343 0 min 0 W/m 2,1 C 5,3 C 0,0 km/h (0 Bft)
28.02.2021 20:20 5,7 C 79 % 1033,7 hPa 0,0 l/m 0,0 km/h (0 Bft) N-NW 342 0 min 0 W/m 2,3 C 5,7 C 0,0 km/h (0 Bft)
28.02.2021 20:15 6,1 C 78 % 1033,7 hPa 0,0 l/m 0,0 km/h (0 Bft) N-NW 342 0 min 0 W/m 2,6 C 6,1 C 0,0 km/h (0 Bft)
28.02.2021 20:10 6,3 C 77 % 1033,7 hPa 0,0 l/m 0,0 km/h (0 Bft) N-NW 342 0 min 0 W/m 2,6 C 6,3 C 0,0 km/h (0 Bft)
28.02.2021 20:05 6,6 C 78 % 1033,6 hPa 0,0 l/m 0,0 km/h (0 Bft) N-NW 342 0 min 0 W/m 3,0 C 6,6 C 0,0 km/h (0 Bft)
28.02.2021 20:00 6,8 C 79 % 1033,7 hPa 0,0 l/m 0,3 km/h (0 Bft) N-NW 342 0 min 0 W/m 3,4 C 6,8 C 4,8 km/h (1 Bft)
28.02.2021 19:55 6,7 C 79 % 1033,7 hPa 0,0 l/m 1,4 km/h (1 Bft) N-NW 342 0 min 0 W/m 3,3 C 6,7 C 6,4 km/h (2 Bft)
28.02.2021 19:50 6,8 C 79 % 1033,7 hPa 0,0 l/m 0,8 km/h (0 Bft) N-NW 343 0 min 0 W/m 3,4 C 6,8 C 4,8 km/h (1 Bft)
28.02.2021 19:45 6,8 C 78 % 1033,7 hPa 0,0 l/m 0,3 km/h (0 Bft) N-NW 342 0 min 0 W/m 3,2 C 6,8 C 6,4 km/h (2 Bft)
28.02.2021 19:40 6,9 C 75 % 1033,8 hPa 0,0 l/m 0,0 km/h (0 Bft) N-NW 341 0 min 0 W/m 2,8 C 6,9 C 0,0 km/h (0 Bft)
28.02.2021 19:35 7,2 C 74 % 1033,7 hPa 0,0 l/m 0,0 km/h (0 Bft) N-NW 341 0 min 0 W/m 2,9 C 7,2 C 0,0 km/h (0 Bft)
28.02.2021 19:30 7,6 C 72 % 1033,7 hPa 0,0 l/m 0,0 km/h (0 Bft) N-NW 341 0 min 0 W/m 2,9 C 7,6 C 0,0 km/h (0 Bft)
28.02.2021 19:25 7,8 C 73 % 1033,7 hPa 0,0 l/m 0,0 km/h (0 Bft) N-NW 341 0 min 0 W/m 3,3 C 7,8 C 0,0 km/h (0 Bft)
28.02.2021 19:20 8,1 C 73 % 1033,8 hPa 0,0 l/m 0,0 km/h (0 Bft) N-NW 341 0 min 0 W/m 3,6 C 8,1 C 0,0 km/h (0 Bft)
28.02.2021 19:15 8,2 C 73 % 1033,8 hPa 0,0 l/m 0,0 km/h (0 Bft) N-NW 341 0 min 0 W/m 3,7 C 8,2 C 0,0 km/h (0 Bft)
28.02.2021 19:10 8,3 C 72 % 1033,7 hPa 0,0 l/m 0,0 km/h (0 Bft) N-NW 341 0 min 0 W/m 3,6 C 8,3 C 0,0 km/h (0 Bft)
28.02.2021 19:05 8,5 C 71 % 1033,7 hPa 0,0 l/m 0,0 km/h (0 Bft) N-NW 341 0 min 0 W/m 3,5 C 8,5 C 0,0 km/h (0 Bft)
28.02.2021 19:00 8,6 C 70 % 1033,8 hPa 0,0 l/m 0,0 km/h (0 Bft) N-NW 341 0 min 0 W/m 3,4 C 8,6 C 0,0 km/h (0 Bft)
28.02.2021 18:55 8,8 C 69 % 1033,7 hPa 0,0 l/m 0,1 km/h (0 Bft) N-NW 341 0 min 0 W/m 3,4 C 8,8 C 1,6 km/h (1 Bft)
28.02.2021 18:50 8,9 C 68 % 1033,7 hPa 0,0 l/m 0,2 km/h (0 Bft) N-NW 342 0 min 0 W/m 3,3 C 8,9 C 3,2 km/h (1 Bft)
28.02.2021 18:45 9,1 C 67 % 1033,6 hPa 0,0 l/m 0,3 km/h (0 Bft) N-NW 342 0 min 0 W/m 3,3 C 9,1 C 4,8 km/h (1 Bft)
28.02.2021 18:40 9,3 C 66 % 1033,6 hPa 0,0 l/m 0,0 km/h (0 Bft) N-NW 342 0 min 0 W/m 3,3 C 9,3 C 0,0 km/h (0 Bft)
28.02.2021 18:35 9,5 C 63 % 1033,6 hPa 0,0 l/m 0,1 km/h (0 Bft) N-NW 342 0 min 0 W/m 2,8 C 9,5 C 1,6 km/h (1 Bft)
28.02.2021 18:30 9,7 C 59 % 1033,6 hPa 0,0 l/m 0,0 km/h (0 Bft) N-NW 341 0 min 0 W/m 2,1 C 9,7 C 0,0 km/h (0 Bft)
28.02.2021 18:25 9,9 C 57 % 1033,5 hPa 0,0 l/m 0,4 km/h (0 Bft) N-NW 341 0 min 0 W/m 1,8 C 9,9 C 4,8 km/h (1 Bft)
28.02.2021 18:20 10,1 C 50 % 1033,5 hPa 0,0 l/m 0,0 km/h (0 Bft) NO 42 0 min 0 W/m 0,2 C 10,1 C 0,0 km/h (0 Bft)
28.02.2021 18:15 10,4 C 49 % 1033,5 hPa 0,0 l/m 0,0 km/h (0 Bft) NO 42 0 min 0 W/m 0,2 C 10,4 C 0,0 km/h (0 Bft)
28.02.2021 18:10 10,7 C 48 % 1033,4 hPa 0,0 l/m 0,0 km/h (0 Bft) NO 42 0 min 0 W/m 0,1 C 10,7 C 0,0 km/h (0 Bft)
28.02.2021 18:05 10,9 C 46 % 1033,4 hPa 0,0 l/m 0,2 km/h (0 Bft) NO 43 0 min 0 W/m -0,3 C 10,9 C 3,2 km/h (1 Bft)
28.02.2021 18:00 11,0 C 45 % 1033,4 hPa 0,0 l/m 0,7 km/h (0 Bft) NO 43 0 min 5 W/m -0,5 C 11,0 C 8,0 km/h (2 Bft)
28.02.2021 17:55 11,1 C 46 % 1033,4 hPa 0,0 l/m 1,0 km/h (0 Bft) NO 43 0 min 9 W/m -0,1 C 11,1 C 9,7 km/h (2 Bft)
28.02.2021 17:50 11,3 C 46 % 1033,3 hPa 0,0 l/m 0,0 km/h (0 Bft) NO 42 0 min 11 W/m 0,1 C 11,3 C 1,6 km/h (1 Bft)
28.02.2021 17:45 11,4 C 46 % 1033,3 hPa 0,0 l/m 0,1 km/h (0 Bft) NO 41 0 min 12 W/m 0,2 C 11,4 C 3,2 km/h (1 Bft)
28.02.2021 17:40 11,6 C 46 % 1033,3 hPa 0,0 l/m 0,6 km/h (0 Bft) NO 42 0 min 14 W/m 0,4 C 11,6 C 4,8 km/h (1 Bft)
28.02.2021 17:35 11,7 C 45 % 1033,3 hPa 0,0 l/m 0,0 km/h (0 Bft) NO 42 0 min 16 W/m 0,2 C 11,7 C 1,6 km/h (1 Bft)
28.02.2021 17:30 11,8 C 45 % 1033,3 hPa 0,0 l/m 0,0 km/h (0 Bft) NO 41 0 min 18 W/m 0,3 C 11,8 C 0,0 km/h (0 Bft)
28.02.2021 17:25 12,1 C 44 % 1033,2 hPa 0,0 l/m 0,0 km/h (0 Bft) NO 42 0 min 19 W/m 0,2 C 12,1 C 1,6 km/h (1 Bft)
28.02.2021 17:20 12,2 C 44 % 1033,3 hPa 0,0 l/m 0,0 km/h (0 Bft) NO 41 0 min 21 W/m 0,3 C 12,2 C 0,0 km/h (0 Bft)
28.02.2021 17:15 12,4 C 43 % 1033,2 hPa 0,0 l/m 0,4 km/h (0 Bft) NO 41 0 min 23 W/m 0,2 C 12,4 C 6,4 km/h (2 Bft)
28.02.2021 17:10 12,7 C 43 % 1033,3 hPa 0,0 l/m 1,8 km/h (1 Bft) NO 45 0 min 47 W/m 0,5 C 12,7 C 8,0 km/h (2 Bft)
28.02.2021 17:05 12,9 C 44 % 1033,3 hPa 0,0 l/m 0,7 km/h (0 Bft) NO 52 0 min 60 W/m 1,0 C 12,9 C 8,0 km/h (2 Bft)
28.02.2021 17:00 13,2 C 44 % 1033,2 hPa 0,0 l/m 0,2 km/h (0 Bft) NW 315 0 min 53 W/m 1,2 C 13,2 C 3,2 km/h (1 Bft)
28.02.2021 16:55 13,5 C 44 % 1033,2 hPa 0,0 l/m 0,0 km/h (0 Bft) W-SW 250 0 min 83 W/m 1,5 C 13,5 C 0,0 km/h (0 Bft)
28.02.2021 16:50 13,7 C 44 % 1033,2 hPa 0,0 l/m 0,0 km/h (0 Bft) W-SW 250 0 min 88 W/m 1,7 C 13,7 C 1,6 km/h (1 Bft)
28.02.2021 16:45 13,9 C 44 % 1033,2 hPa 0,0 l/m 0,0 km/h (0 Bft) W-SW 250 0 min 86 W/m 1,9 C 13,9 C 0,0 km/h (0 Bft)
28.02.2021 16:40 13,9 C 46 % 1033,3 hPa 0,0 l/m 0,0 km/h (0 Bft) W-SW 250 0 min 128 W/m 2,5 C 13,9 C 1,6 km/h (1 Bft)
28.02.2021 16:35 13,8 C 47 % 1033,3 hPa 0,0 l/m 0,0 km/h (0 Bft) W-SW 249 0 min 141 W/m 2,7 C 13,8 C 0,0 km/h (0 Bft)
28.02.2021 16:30 13,7 C 46 % 1033,3 hPa 0,0 l/m 0,0 km/h (0 Bft) W-SW 249 5 min 155 W/m 2,3 C 13,7 C 1,6 km/h (1 Bft)
28.02.2021 16:25 13,7 C 46 % 1033,4 hPa 0,0 l/m 0,0 km/h (0 Bft) W-SW 249 5 min 169 W/m 2,3 C 13,7 C 0,0 km/h (0 Bft)
28.02.2021 16:20 13,7 C 46 % 1033,4 hPa 0,0 l/m 0,0 km/h (0 Bft) W-SW 249 5 min 181 W/m 2,3 C 13,7 C 1,6 km/h (1 Bft)
28.02.2021 16:15 13,6 C 47 % 1033,4 hPa 0,0 l/m 0,0 km/h (0 Bft) W-SW 249 5 min 197 W/m 2,5 C 13,6 C 0,0 km/h (0 Bft)
28.02.2021 16:10 13,6 C 47 % 1033,5 hPa 0,0 l/m 0,0 km/h (0 Bft) W-SW 249 5 min 207 W/m 2,5 C 13,6 C 1,6 km/h (1 Bft)
28.02.2021 16:05 13,3 C 49 % 1033,5 hPa 0,0 l/m 0,0 km/h (0 Bft) W-SW 249 5 min 192 W/m 2,8 C 13,3 C 0,0 km/h (0 Bft)
28.02.2021 16:00 13,2 C 49 % 1033,6 hPa 0,0 l/m 0,1 km/h (0 Bft) W-SW 249 5 min 206 W/m 2,7 C 13,2 C 1,6 km/h (1 Bft)
28.02.2021 15:55 13,0 C 49 % 1033,6 hPa 0,0 l/m 0,0 km/h (0 Bft) W-SW 249 5 min 260 W/m 2,5 C 13,0 C 0,0 km/h (0 Bft)
28.02.2021 15:50 12,8 C 50 % 1033,6 hPa 0,0 l/m 0,2 km/h (0 Bft) W-SW 249 5 min 276 W/m 2,6 C 12,8 C 4,8 km/h (1 Bft)
28.02.2021 15:45 12,9 C 49 % 1033,7 hPa 0,0 l/m 0,0 km/h (0 Bft) W-SW 249 5 min 287 W/m 2,5 C 12,9 C 1,6 km/h (1 Bft)
28.02.2021 15:40 12,7 C 52 % 1033,8 hPa 0,0 l/m 0,3 km/h (0 Bft) W-SW 249 5 min 292 W/m 3,1 C 12,7 C 6,4 km/h (2 Bft)
28.02.2021 15:35 12,7 C 52 % 1033,8 hPa 0,0 l/m 0,8 km/h (0 Bft) W 275 5 min 304 W/m 3,1 C 12,7 C 9,7 km/h (2 Bft)
28.02.2021 15:30 12,8 C 51 % 1033,8 hPa 0,0 l/m 0,2 km/h (0 Bft) W 275 5 min 316 W/m 2,9 C 12,8 C 4,8 km/h (1 Bft)
28.02.2021 15:25 12,8 C 52 % 1034,0 hPa 0,0 l/m 0,1 km/h (0 Bft) W 275 5 min 327 W/m 3,2 C 12,8 C 4,8 km/h (1 Bft)
28.02.2021 15:20 12,7 C 54 % 1034,0 hPa 0,0 l/m 0,2 km/h (0 Bft) W 276 5 min 338 W/m 3,6 C 12,7 C 3,2 km/h (1 Bft)
28.02.2021 15:15 12,6 C 55 % 1034,0 hPa 0,0 l/m 0,0 km/h (0 Bft) W 277 5 min 348 W/m 3,8 C 12,6 C 1,6 km/h (1 Bft)
28.02.2021 15:10 12,5 C 54 % 1034,1 hPa 0,0 l/m 0,5 km/h (0 Bft) W 277 5 min 353 W/m 3,5 C 12,5 C 4,8 km/h (1 Bft)
28.02.2021 15:05 12,4 C 54 % 1034,2 hPa 0,0 l/m 0,2 km/h (0 Bft) W 261 5 min 364 W/m 3,4 C 12,4 C 4,8 km/h (1 Bft)
28.02.2021 15:00 12,3 C 55 % 1034,2 hPa 0,0 l/m 0,4 km/h (0 Bft) W 265 5 min 373 W/m 3,5 C 12,3 C 6,4 km/h (2 Bft)
_ Min-Zeit 05:45 17:10 14:30 - 15:15 - - - - 05:45 05:45 15:55
Minimum _ -2,6 C 43 % 1032,1 hPa - 0,0 km/h (0 Bft) - - - - -3,4 C -2,6 C 0,0 km/h (0 Bft)
_ Max-Zeit 16:40 08:10 09:10 15:00 13:50 - - 15:00 12:10 14:30 16:40 13:50
Maximum _ 13,9 C 96 % 1034,8 hPa 0,0 l/m 8,4 km/h
N-NW (2 Bft)
- - 5 min 526 W/m 5,5 C 13,9 C 17,7 km/h
N-NW (3 Bft)
Durchschnitt _ 4,6 C 79 % 1033,9 hPa #0,0 l/m 0,9 km/h (0 Bft) NW - #6:00 h 356 W/m 0,8 C 4,6 C 3,3 km/h (1 Bft)